1485331200.98,65088,10.5,73498.8,-3.45,-39.23,-40.09,0,*57
1485331202.22,65089,10.5,73496.8,-3.45,-39.35,-40.09,0,*51
1485331203.45,65090,10.5,73494.8,-3.45,-39.71,-40.47,0,*53
1485331204.71,65091,10.5,73484.8,-3.47,-39.09,-39.79,0,*5C
1485331205.97,65092,10.5,73492.0,-3.45,-38.79,-39.59,0,*59
1485331207.21,65093,10.5,73494.5,-3.45,-40.15,-40.97,0,*51
1485331208.42,65094,10.5,73492.8,-3.49,-40.53,-41.17,0,*51
1485331209.68,65095,10.5,73490.3,-3.49,-39.59,-40.21,0,*50
1485331210.93,65096,10.5,73490.8,-3.47,-39.29,-39.91,0,*5F
1485331212.19,65097,10.5,73488.5,-3.49,-39.03,-39.79,0,*5E
1485331213.43,65098,10.5,73486.0,-3.49,-39.03,-39.65,0,*5C
1485331214.66,65099,10.5,73494.3,-3.49,-38.79,-39.35,0,*54
1485331215.92,65100,10.5,73494.0,-3.49,-39.23,-39.97,0,*53
1485331217.13,65101,10.5,73494.8,-3.49,-39.47,-40.15,0,*54
1485331218.36,65102,10.5,73492.0,-3.49,-38.79,-39.47,0,*52
1485331219.59,65103,10.5,73496.8,-3.49,-38.29,-38.85,0,*59
1485331220.83,65104,10.5,73500.3,-3.49,-38.17,-38.67,0,*5F
1485331222.08,65105,10.5,73502.5,-3.47,-38.35,-38.91,0,*59
1485331223.33,65106,10.5,73502.3,-3.47,-37.93,-38.55,0,*51
1485331224.59,65107,10.5,73500.5,-3.49,-38.79,-39.41,0,*51
1485331225.83,65108,10.5,73500.3,-3.47,-38.11,-38.73,0,*5E
1485331227.08,65109,10.5,73506.5,-3.47,-38.23,-38.73,0,*5E
1485331228.33,65110,10.5,73500.8,-3.47,-38.17,-38.79,0,*5B
1485331229.55,65111,10.5,73500.3,-3.45,-38.23,-38.97,0,*5F
1485331230.76,65112,10.56,73500.8,-3.45,-38.43,-39.09,0,*5C
1485331232.02,65113,10.56,73500.3,-3.43,-37.87,-38.29,0,*5F
1485331233.26,65114,10.5,73500.8,-3.43,-37.75,-38.35,0,*58
1485331234.49,65115,10.56,73504.0,-3.43,-37.75,-38.17,0,*59
1485331235.74,65116,10.56,73500.3,-3.43,-37.51,-38.05,0,*5F
1485331236.99,65117,10.56,73504.0,-3.43,-37.51,-38.05,0,*5E
1485331238.24,65118,10.56,73504.0,-3.39,-37.63,-38.11,0,*58
1485331239.46,65119,10.56,73506.3,-3.39,-37.87,-38.43,0,*54
1485331240.71,65120,10.5,73506.8,-3.39,-38.29,-39.03,0,*50
1485331241.96,65121,10.56,73506.5,-3.37,-38.43,-39.03,0,*53
1485331243.21,65122,10.56,73504.0,-3.39,-37.81,-38.43,0,*5A
1485331244.47,65123,10.56,73508.0,-3.37,-37.45,-37.99,0,*55
1485331245.67,65124,10.56,73508.0,-3.39,-37.45,-38.05,0,*56
1485331246.95,65125,10.56,73510.0,-3.37,-37.69,-38.11,0,*52
1485331248.22,65126,10.56,73506.3,-3.35,-37.63,-38.23,0,*58
1485331249.51,65127,10.56,73508.5,-3.37,-37.63,-38.23,0,*5B
1485331250.79,65128,10.56,73506.5,-3.37,-38.29,-39.03,0,*56
1485331252.04,65129,10.56,73506.5,-3.39,-38.11,-38.67,0,*51
1485331253.34,65130,10.5,73502.5,-3.37,-37.81,-38.29,0,*5B
1485331254.59,65131,10.56,73502.3,-3.35,-37.81,-38.43,0,*54
1485331255.82,65132,10.5,73498.5,-3.33,-37.75,-38.35,0,*5B
1485331257.07,65133,10.56,73502.8,-3.35,-37.81,-38.35,0,*57
1485331258.34,65134,10.56,73500.0,-3.33,-37.99,-38.43,0,*5E
1485331259.63,65135,10.56,73502.5,-3.33,-37.63,-38.23,0,*5C
1485331260.89,65136,10.56,73496.3,-3.33,-37.75,-38.23,0,*58
1485331262.16,65137,10.56,73502.0,-3.33,-37.93,-38.43,0,*57
1485331263.41,65138,10.56,73502.0,-3.33,-38.73,-39.41,0,*5A
1485331264.69,65139,10.56,73498.0,-3.33,-38.23,-38.79,0,*54
1485331265.95,65140,10.56,73500.0,-3.33,-37.99,-38.73,0,*5E
1485331267.21,65141,10.56,73500.3,-3.33,-38.17,-38.79,0,*5C
1485331268.44,65142,10.56,73500.8,-3.33,-38.35,-38.97,0,*5F
1485331269.73,65143,10.56,73500.8,-3.33,-38.23,-38.79,0,*59
1485331270.97,65144,10.56,73506.3,-3.33,-38.55,-39.09,0,*59
1485331272.22,65145,10.56,73500.8,-3.33,-38.73,-39.41,0,*50
1485331273.48,65146,10.56,73506.8,-3.33,-38.97,-39.59,0,*50
1485331274.72,65147,10.56,73500.8,-3.33,-38.43,-39.09,0,*5D
1485331275.95,65148,10.56,73506.5,-3.35,-38.17,-38.79,0,*53
1485331277.18,65149,10.56,73510.0,-3.33,-38.05,-38.73,0,*5D
1485331278.42,65150,10.56,73504.3,-3.35,-38.17,-38.79,0,*5A
1485331279.63,65151,10.56,73504.0,-3.35,-38.05,-38.61,0,*51
1485331280.91,65152,10.56,73500.8,-3.33,-38.79,-39.53,0,*5F
1485331282.14,65153,10.56,73506.8,-3.33,-38.17,-38.73,0,*55
1485331283.4,65154,10.56,73504.3,-3.33,-38.61,-39.23,0,*57
1485331284.66,65155,10.56,73500.3,-3.33,-37.99,-38.73,0,*5A
1485331285.92,65156,10.56,73506.0,-3.35,-38.23,-38.91,0,*5D
1485331287.18,65157,10.56,73508.0,-3.33,-38.23,-38.97,0,*5C
1485331288.44,65158,10.56,73510.0,-3.33,-37.75,-38.23,0,*50
1485331289.71,65159,10.56,73510.8,-3.33,-37.81,-38.35,0,*5D
1485331290.97,65160,10.56,73510.3,-3.33,-37.99,-38.61,0,*5F
1485331292.21,65161,10.56,73506.3,-3.33,-38.05,-38.55,0,*53
1485331293.48,65162,10.56,73506.3,-3.33,-37.81,-38.35,0,*55
1485331294.77,65163,10.56,73504.3,-3.33,-38.23,-38.91,0,*5D
1485331296.03,65164,10.56,73506.0,-3.33,-38.35,-38.91,0,*5D
1485331297.26,65165,10.56,73506.5,-3.33,-38.35,-39.09,0,*5C
1485331298.5,65166,10.56,73510.3,-3.35,-37.99,-38.61,0,*5F
1485331299.74,65167,10.56,73510.3,-3.33,-37.75,-38.35,0,*5B
1485331301.0,65168,10.56,73510.3,-3.29,-37.57,-37.99,0,*56
1485331302.28,65169,10.56,73510.3,-3.29,-37.93,-38.67,0,*51
1485331303.56,65170,10.56,73504.5,-3.29,-37.93,-38.49,0,*55
1485331304.82,65171,10.56,73506.5,-3.29,-37.69,-38.17,0,*5A
1485331306.05,65172,10.56,73506.3,-3.27,-37.51,-38.17,0,*5C
1485331307.31,65173,10.56,73510.8,-3.27,-37.69,-38.29,0,*5B
1485331308.55,65174,10.56,73508.3,-3.27,-37.57,-38.29,0,*51
1485331309.78,65175,10.56,73508.0,-3.27,-37.99,-38.55,0,*59
1485331311.01,65176,10.56,73510.8,-3.27,-37.57,-38.11,0,*58
1485331312.29,65177,10.56,73510.3,-3.25,-37.51,-38.11,0,*5D
1485331313.52,65178,10.56,73510.8,-3.27,-37.33,-37.93,0,*51
1485331314.73,65179,10.56,73510.5,-3.27,-37.15,-37.87,0,*51
1485331316.01,65180,10.56,73514.5,-3.25,-37.09,-37.69,0,*58
1485331317.27,65181,10.56,73512.8,-3.25,-38.05,-38.49,0,*57
1485331318.55,65182,10.56,73514.8,-3.25,-37.69,-38.29,0,*57
1485331319.79,65183,10.56,73510.5,-3.23,-37.81,-38.43,0,*5A
1485331321.04,65184,10.56,73512.0,-3.25,-37.87,-38.43,0,*5D
1485331322.32,65185,10.56,73512.0,-3.25,-37.69,-38.29,0,*50
1485331323.58,65186,10.56,73508.5,-3.25,-38.05,-38.67,0,*5C
1485331324.82,65187,10.56,73514.0,-3.23,-37.81,-38.35,0,*5F
1485331326.07,65188,10.56,73512.0,-3.25,-37.45,-37.93,0,*5D
1485331327.35,65189,10.63,73516.0,-3.25,-37.51,-38.11,0,*5C
1485331328.59,65190,10.56,73512.3,-3.23,-37.99,-38.55,0,*56
1485331329.87,65191,10.56,73510.0,-3.25,-38.67,-39.29,0,*55
1485331331.12,65192,10.56,73506.0,-3.25,-37.93,-38.61,0,*5F
1485331332.38,65193,10.56,73514.8,-3.25,-38.23,-38.85,0,*50
1485331333.61,65194,10.56,73512.3,-3.25,-38.05,-38.61,0,*59
1485331334.85,65195,10.56,73506.3,-3.25,-37.87,-38.43,0,*5D
1485331336.13,65196,10.56,73506.8,-3.25,-37.63,-38.11,0,*53
1485331337.36,65197,10.56,73506.0,-3.23,-38.55,-39.03,0,*5C
1485331338.57,65198,10.56,73506.0,-3.23,-37.87,-38.43,0,*56
1485331339.79,65199,10.63,73510.0,-3.23,-37.87,-38.43,0,*57
1485331341.07,65200,10.63,73510.8,-3.25,-37.93,-38.49,0,*5D
1485331342.35,65201,10.56,73510.0,-3.25,-37.51,-38.11,0,*5F
1485331343.64,65202,10.56,73510.0,-3.25,-37.63,-38.23,0,*5C
1485331344.87,65203,10.56,73506.8,-3.23,-37.63,-38.17,0,*5C
1485331346.16,65204,10.56,73508.3,-3.25,-37.69,-38.23,0,*50
1485331347.42,65205,10.56,73508.5,-3.23,-37.63,-38.23,0,*5D
1485331348.62,65206,10.56,73510.5,-3.23,-37.57,-38.05,0,*5D
1485331349.82,65207,10.63,73514.3,-3.23,-37.75,-38.35,0,*5F
1485331351.09,65208,10.63,73512.5,-3.23,-37.81,-38.23,0,*5C
1485331352.29,65209,10.56,73508.8,-3.23,-37.57,-38.05,0,*52
1485331353.52,65210,10.56,73508.3,-3.23,-37.45,-37.99,0,*53
1485331354.73,65211,10.63,73510.0,-3.23,-37.75,-38.35,0,*58
1485331355.94,65212,10.56,73512.3,-3.23,-37.75,-38.35,0,*5B
1485331357.23,65213,10.63,73514.8,-3.21,-37.63,-38.23,0,*58
1485331358.47,65214,10.56,73514.3,-3.21,-37.87,-38.43,0,*53
1485331359.72,65215,10.63,73512.3,-3.21,-38.43,-39.03,0,*50
1485331360.98,65216,10.63,73510.3,-3.21,-38.23,-38.97,0,*59
1485331362.23,65217,10.56,73514.0,-3.21,-38.35,-39.03,0,*53
1485331363.48,65218,10.56,73512.5,-3.21,-38.23,-38.73,0,*5D
1485331364.74,65219,10.63,73514.3,-3.21,-38.17,-38.91,0,*57
1485331366.01,65220,10.63,73512.3,-3.21,-37.75,-38.23,0,*5F
1485331367.24,65221,10.63,73514.0,-3.21,-37.75,-38.35,0,*59
1485331368.47,65222,10.63,73516.8,-3.21,-38.17,-38.73,0,*53
1485331369.73,65223,10.63,73512.8,-3.21,-38.05,-38.79,0,*5B
1485331370.94,65224,10.63,73510.5,-3.23,-37.87,-38.55,0,*55
1485331372.17,65225,10.63,73514.0,-3.23,-37.99,-38.73,0,*5F
1485331373.38,65226,10.63,73512.3,-3.23,-37.87,-38.55,0,*57
1485331374.65,65227,10.63,73516.3,-3.21,-37.75,-38.23,0,*58
1485331375.88,65228,10.63,73518.3,-3.21,-37.57,-38.17,0,*50
1485331377.14,65229,10.63,73522.3,-3.21,-37.75,-38.23,0,*56
1485331378.4,65230,10.63,73516.5,-3.21,-38.17,-38.79,0,*5A
1485331379.66,65231,10.63,73512.5,-3.21,-38.05,-38.79,0,*58
1485331380.92,65232,10.63,73512.5,-3.21,-37.99,-38.73,0,*5B
1485331382.18,65233,10.63,73512.3,-3.21,-37.99,-38.55,0,*5E
1485331383.45,65234,10.63,73512.8,-3.21,-37.39,-37.87,0,*53
1485331384.69,65235,10.63,73510.8,-3.21,-37.27,-37.87,0,*5D
1485331385.95,65236,10.63,73514.3,-3.21,-37.45,-37.99,0,*55
1485331387.17,65237,10.63,73514.5,-3.19,-38.11,-38.73,0,*5A
1485331388.43,65238,10.63,73514.0,-3.21,-38.05,-38.79,0,*51
1485331389.67,65239,10.63,73512.3,-3.21,-37.75,-38.43,0,*51
1485331390.88,65240,10.63,73518.3,-3.19,-37.75,-38.35,0,*55
1485331392.12,65241,10.63,73516.8,-3.19,-37.57,-38.29,0,*59
1485331393.38,65242,10.63,73516.0,-3.21,-37.33,-37.99,0,*57
1485331394.59,65243,10.63,73518.0,-3.19,-37.15,-37.75,0,*5B
1485331395.85,65244,10.63,73512.8,-3.19,-37.51,-37.99,0,*5E
1485331397.06,65245,10.63,73514.5,-3.19,-37.15,-37.75,0,*5D
1485331398.34,65246,10.63,73512.0,-3.17,-37.39,-37.93,0,*56
1485331399.58,65247,10.63,73514.0,-3.13,-37.27,-37.87,0,*59
1485331400.86,65248,10.63,73516.5,-3.17,-37.39,-37.93,0,*58
1485331402.12,65249,10.63,73518.0,-3.17,-37.33,-37.93,0,*53
1485331403.35,65250,10.63,73512.8,-3.13,-37.33,-37.75,0,*57
1485331404.57,65251,10.63,73514.3,-3.13,-37.45,-38.05,0,*5F
1485331405.85,65252,10.63,73516.8,-3.17,-37.51,-38.11,0,*58
1485331407.14,65253,10.63,73516.0,-3.13,-37.09,-37.63,0,*5A
1485331408.4,65254,10.63,73512.5,-3.13,-36.91,-37.45,0,*59
1485331409.65,65255,10.63,73518.3,-3.13,-36.79,-37.33,0,*5F
1485331410.88,65256,10.63,73514.8,-3.13,-37.45,-38.05,0,*58
1485331412.08,65257,10.63,73514.8,-3.11,-37.27,-37.75,0,*57
1485331413.29,65258,10.63,73514.5,-3.11,-37.33,-37.75,0,*5D
1485331414.52,65259,10.63,73510.5,-3.11,-37.45,-37.93,0,*55
1485331415.73,65260,10.63,73514.8,-3.11,-37.33,-37.87,0,*5B
1485331416.99,65261,10.63,73512.5,-3.09,-37.27,-37.69,0,*56
1485331418.23,65262,10.63,73518.0,-3.09,-37.45,-37.87,0,*51
1485331419.48,65263,10.63,73514.3,-3.09,-37.27,-37.69,0,*54
1485331420.7,65264,10.63,73516.5,-3.11,-37.27,-37.87,0,*5A
1485331421.96,65265,10.63,73514.3,-3.09,-37.39,-37.87,0,*5D
1485331423.17,65266,10.63,73512.5,-3.07,-37.45,-38.05,0,*5E
1485331424.43,65267,10.63,73514.0,-3.05,-37.03,-37.63,0,*50
1485331425.7,65268,10.63,73512.0,-3.05,-37.51,-38.11,0,*52
1485331426.92,65269,10.63,73514.8,-3.07,-37.87,-38.55,0,*5A
1485331428.16,65270,10.63,73514.5,-3.07,-37.57,-38.23,0,*5E
1485331429.39,65271,10.63,73514.5,-3.07,-37.51,-38.17,0,*5E
1485331430.63,65272,10.63,73516.5,-3.07,-37.69,-38.35,0,*56
1485331431.84,65273,10.63,73512.0,-3.07,-37.57,-38.17,0,*5A
1485331433.1,65274,10.63,73518.3,-3.05,-37.21,-37.75,0,*55
1485331434.38,65275,10.63,73512.0,-3.05,-37.39,-37.93,0,*55
1485331435.66,65276,10.63,73512.3,-3.05,-37.51,-38.11,0,*5D
1485331436.87,65277,10.63,73516.0,-3.07,-37.45,-37.87,0,*5B
1485331438.15,65278,10.63,73514.5,-3.05,-37.39,-37.93,0,*58
1485331439.4,65279,10.63,73514.5,-3.05,-37.33,-37.81,0,*50
1485331440.67,65280,10.63,73516.0,-3.07,-37.39,-37.99,0,*57
1485331441.92,65281,10.63,73512.3,-3.05,-37.57,-38.11,0,*53
1485331443.2,65282,10.63,73516.0,-3.05,-37.51,-37.93,0,*53
1485331444.41,65283,10.63,73518.5,-3.03,-37.15,-37.87,0,*51
1485331445.7,65284,10.63,73516.0,-3.01,-37.51,-37.93,0,*51
1485331446.91,65285,10.63,73518.0,-3.03,-37.33,-37.87,0,*53
1485331448.19,65286,10.63,73512.8,-3.05,-37.39,-37.99,0,*53
1485331449.42,65287,10.63,73516.5,-3.05,-37.03,-37.57,0,*59
1485331450.66,65288,10.63,73516.8,-3.03,-37.93,-38.61,0,*53
1485331451.9,65289,10.63,73514.5,-3.01,-37.87,-38.43,0,*55
1485331453.14,65290,10.63,73518.8,-3.03,-37.69,-38.43,0,*5F
1485331454.42,65291,10.63,73516.0,-3.01,-37.51,-38.11,0,*50
1485331455.63,65292,10.63,73516.0,-3.03,-37.27,-37.75,0,*5D
1485331456.85,65293,10.63,73514.0,-3.03,-37.27,-37.75,0,*5C
1485331458.1,65294,10.63,73516.0,-3.03,-37.09,-37.69,0,*5A
1485331459.34,65295,10.63,73516.0,-3.01,-37.27,-37.75,0,*58
1485331460.57,65296,10.63,73514.3,-3.01,-37.45,-38.05,0,*57
1485331461.8,65297,10.63,73518.0,-3.03,-37.33,-37.93,0,*55
1485331463.04,65298,10.63,73516.8,-3.01,-37.87,-38.61,0,*55
1485331464.31,65299,10.63,73512.0,-3.03,-37.69,-38.29,0,*5A
1485331465.57,65300,10.63,73512.3,-3.01,-38.73,-39.59,0,*5B
1485331466.83,65301,10.63,73508.8,-3.01,-37.87,-38.67,0,*52
1485331468.1,65302,10.63,73512.0,-3.01,-37.57,-38.23,0,*5C
1485331469.35,65303,10.63,73512.3,-3.01,-37.15,-37.69,0,*5A
1485331470.62,65304,10.63,73514.0,-3.01,-37.75,-38.29,0,*50
1485331471.86,65305,10.63,73514.3,-3.01,-37.27,-37.75,0,*50
1485331473.06,65306,10.63,73510.8,-2.99,-37.45,-38.17,0,*5C
1485331474.3,65307,10.63,73506.5,-3.01,-37.27,-37.87,0,*5F
1485331475.57,65308,10.63,73504.0,-3.01,-37.57,-38.23,0,*56
1485331476.83,65309,10.63,73506.5,-2.99,-37.63,-38.23,0,*50
1485331478.07,65310,10.63,73502.8,-2.99,-38.85,-39.71,0,*59
1485331479.3,65311,10.63,73498.5,-2.99,-38.43,-39.15,0,*50
1485331480.51,65312,10.63,73500.8,-2.99,-38.17,-38.61,0,*50
1485331481.77,65313,10.63,73506.3,-3.01,-38.61,-39.23,0,*57
1485331483.02,65314,10.63,73506.0,-3.03,-38.11,-38.91,0,*5D
1485331484.26,65315,10.63,73508.0,-3.03,-37.57,-38.23,0,*58
1485331485.53,65316,10.63,73506.0,-3.01,-37.57,-38.23,0,*59
1485331486.76,65317,10.63,73512.3,-2.99,-37.39,-38.05,0,*54
1485331488.04,65318,10.63,73512.3,-2.97,-37.69,-38.23,0,*54
1485331489.3,65319,10.63,73508.3,-3.01,-37.51,-38.05,0,*54
1485331490.56,65320,10.63,73512.3,-3.01,-37.45,-37.93,0,*5B
1485331491.77,65321,10.63,73510.0,-2.99,-38.17,-38.85,0,*5A
1485331493.0,65322,10.63,73510.0,-2.99,-37.69,-38.43,0,*55
1485331494.25,65323,10.63,73508.0,-2.99,-37.81,-38.35,0,*53
1485331495.51,65324,10.63,73508.5,-2.97,-37.69,-38.35,0,*5C
1485331496.75,65325,10.69,73512.8,-2.99,-37.99,-38.55,0,*5A
1485331498.01,65326,10.69,73512.0,-2.97,-37.69,-38.43,0,*5F
1485331499.24,65327,10.63,73514.3,-2.99,-37.69,-38.43,0,*50
1485331500.48,65328,10.63,73512.3,-2.99,-37.69,-38.17,0,*5E
1485331501.76,65329,10.63,73508.8,-2.97,-38.67,-39.59,0,*5B
1485331503.03,65330,10.63,73508.8,-2.97,-37.81,-38.55,0,*59
1485331504.31,65331,10.63,73510.3,-2.97,-37.63,-38.23,0,*55
1485331505.55,65332,10.69,73508.5,-2.99,-38.17,-38.67,0,*54
1485331506.78,65333,10.69,73510.5,-2.99,-38.43,-39.15,0,*50
1485331508.03,65334,10.69,73510.3,-2.99,-38.67,-39.23,0,*54
1485331509.27,65335,10.69,73508.8,-2.99,-38.85,-39.59,0,*54
1485331510.51,65336,10.69,73512.3,-2.99,-37.81,-38.43,0,*56
1485331511.8,65337,10.69,73510.5,-2.97,-37.63,-38.23,0,*53
1485331513.09,65338,10.69,73508.5,-3.01,-38.91,-39.79,0,*5E
1485331514.37,65339,10.69,73508.5,-3.01,-38.67,-39.23,0,*59
1485331515.63,65340,10.69,73512.0,-3.01,-37.87,-38.49,0,*5B
1485331516.92,65341,10.69,73510.8,-3.01,-38.67,-39.79,0,*59
1485331518.18,65342,10.69,73510.0,-3.03,-38.29,-38.91,0,*55
1485331519.43,65343,10.69,73508.3,-3.01,-38.23,-38.73,0,*50
1485331520.66,65344,10.69,73508.3,-3.03,-38.61,-39.41,0,*53
1485331521.93,65345,10.69,73508.8,-3.01,-37.93,-38.61,0,*51
1485331523.19,65346,10.69,73508.8,-3.01,-37.87,-38.49,0,*5D
1485331524.48,65347,10.69,73506.8,-3.01,-37.69,-38.23,0,*50
1485331525.71,65348,10.69,73508.5,-3.01,-37.45,-38.05,0,*55
1485331526.95,65349,10.69,73510.8,-3.01,-37.33,-37.87,0,*50
1485331528.21,65350,10.69,73508.8,-3.01,-37.33,-37.93,0,*5D
1485331529.48,65351,10.69,73504.8,-2.99,-37.21,-37.81,0,*5C
1485331530.72,65352,10.69,73506.3,-2.97,-37.87,-38.61,0,*5C
1485331531.93,65353,10.69,73506.3,-2.99,-38.17,-38.85,0,*5F
1485331533.17,65354,10.69,73512.5,-2.99,-37.81,-38.43,0,*52
1485331534.4,65355,10.69,73516.3,-2.99,-38.05,-38.67,0,*56
1485331535.66,65356,10.69,73512.5,-2.99,-38.79,-39.53,0,*58
1485331536.92,65357,10.69,73512.0,-2.99,-38.79,-39.59,0,*53
1485331538.18,65358,10.69,73512.3,-2.99,-37.99,-38.67,0,*51
1485331539.4,65359,10.69,73512.8,-2.99,-37.87,-38.55,0,*5E
1485331540.6,65360,10.69,73508.0,-2.99,-38.61,-39.35,0,*54
1485331541.85,65361,10.69,73504.8,-2.99,-38.23,-39.03,0,*56
1485331543.08,65362,10.69,73506.5,-2.99,-38.43,-39.23,0,*51
1485331544.31,65363,10.69,73504.3,-2.99,-38.43,-39.03,0,*52
1485331545.53,65364,10.69,73510.3,-2.99,-37.87,-38.55,0,*50
1485331546.77,65365,10.69,73508.5,-2.99,-37.69,-38.43,0,*56
1485331548.03,65366,10.69,73508.0,-2.97,-37.81,-38.43,0,*5D
1485331549.28,65367,10.69,73508.0,-2.99,-37.81,-38.43,0,*52
1485331550.51,65368,10.69,73510.5,-2.99,-37.69,-38.43,0,*5B
1485331551.73,65369,10.69,73512.3,-2.99,-37.87,-38.43,0,*5A
1485331552.94,65370,10.69,73510.8,-2.99,-38.35,-38.97,0,*5D
1485331554.2,65371,10.69,73510.8,-3.01,-38.05,-38.49,0,*5C
1485331555.43,65372,10.69,73514.0,-2.99,-37.99,-38.61,0,*5F
1485331556.67,65373,10.69,73512.3,-2.97,-37.87,-38.61,0,*5F
1485331557.9,65374,10.69,73510.5,-2.99,-38.35,-39.15,0,*52
1485331559.12,65375,10.69,73510.3,-2.99,-37.87,-38.61,0,*57
1485331560.36,65376,10.69,73510.5,-2.99,-37.21,-37.87,0,*5F
1485331561.62,65377,10.69,73510.5,-2.97,-37.63,-38.35,0,*50
1485331562.88,65378,10.69,73512.0,-2.97,-37.27,-37.99,0,*56
1485331564.17,65379,10.69,73512.8,-2.97,-37.09,-37.63,0,*5E
1485331565.43,65380,10.69,73508.8,-2.97,-37.39,-38.05,0,*54
1485331566.69,65381,10.69,73512.5,-2.97,-37.63,-38.35,0,*59
1485331567.95,65382,10.69,73510.0,-2.95,-37.39,-37.99,0,*5E
1485331569.21,65383,10.69,73514.0,-2.95,-37.39,-37.93,0,*55
1485331570.42,65384,10.69,73512.8,-2.95,-37.57,-38.17,0,*59
1485331571.68,65385,10.69,73512.3,-2.95,-37.21,-37.81,0,*59
1485331572.92,65386,10.69,73512.3,-2.95,-37.57,-38.29,0,*56
1485331574.16,65387,10.69,73512.3,-2.95,-37.75,-38.49,0,*51
1485331575.36,65388,10.69,73510.3,-2.95,-37.57,-38.17,0,*55
1485331576.6,65389,10.69,73514.3,-2.95,-37.39,-38.17,0,*5C
1485331577.81,65390,10.69,73516.8,-2.91,-37.75,-38.35,0,*58
1485331579.07,65391,10.69,73514.3,-2.91,-37.63,-38.11,0,*58
1485331580.28,65392,10.69,73516.3,-2.91,-37.57,-38.17,0,*5A
1485331581.52,65393,10.69,73514.3,-2.91,-37.33,-37.81,0,*59
1485331582.76,65394,10.69,73512.3,-2.91,-36.85,-37.39,0,*51
1485331584.04,65395,10.69,73516.3,-2.89,-37.09,-37.69,0,*59
1485331585.3,65396,10.69,73516.3,-2.89,-37.27,-37.93,0,*53
1485331586.53,65397,10.69,73518.0,-2.87,-37.33,-37.93,0,*59
1485331587.81,65398,10.69,73512.3,-2.89,-36.79,-37.51,0,*59
1485331589.05,65399,10.69,73516.3,-2.87,-36.73,-37.39,0,*52
1485331590.32,65400,10.69,73512.5,-2.85,-37.45,-37.99,0,*59
1485331591.55,65401,10.69,73516.3,-2.83,-37.33,-37.99,0,*5F
1485331592.81,65402,10.69,73512.5,-2.85,-37.33,-37.99,0,*5A
1485331594.08,65403,10.69,73512.0,-2.85,-36.85,-37.51,0,*53
1485331595.37,65404,10.69,73510.3,-2.85,-37.21,-37.69,0,*50
1485331596.57,65405,10.69,73512.5,-2.83,-36.73,-37.45,0,*5F
1485331597.81,65406,10.69,73512.3,-2.83,-36.85,-37.51,0,*50
1485331599.07,65407,10.69,73508.0,-2.81,-36.85,-37.39,0,*5D
1485331600.3,65408,10.69,73512.8,-2.81,-37.03,-37.75,0,*55
1485331601.58,65409,10.69,73514.0,-2.81,-37.21,-37.93,0,*5C
1485331602.81,65410,10.69,73516.8,-2.79,-37.27,-37.93,0,*55
1485331604.02,65411,10.69,73512.5,-2.79,-37.15,-37.75,0,*5D
1485331605.25,65412,10.69,73512.8,-2.79,-37.33,-37.93,0,*52
1485331606.49,65413,10.69,73514.3,-2.79,-36.97,-37.51,0,*52
1485331607.71,65414,10.69,73516.5,-2.79,-37.15,-37.75,0,*58
1485331608.92,65415,10.69,73514.0,-2.79,-37.15,-37.87,0,*54
1485331610.15,65416,10.69,73514.8,-2.79,-37.21,-38.05,0,*55
1485331611.41,65417,10.69,73516.0,-2.77,-37.33,-37.93,0,*59
1485331612.66,65418,10.69,73514.8,-2.77,-37.39,-38.05,0,*5C
1485331613.9,65419,10.69,73514.5,-2.77,-37.15,-37.87,0,*56
1485331615.14,65420,10.69,73518.3,-2.75,-37.27,-37.87,0,*5F
1485331616.42,65421,10.69,73516.5,-2.77,-37.09,-37.69,0,*50
1485331617.71,65422,10.69,73516.3,-2.75,-37.09,-37.69,0,*51
1485331618.94,65423,10.69,73516.3,-2.75,-37.33,-38.05,0,*5C
1485331620.17,65424,10.69,73514.5,-2.75,-37.45,-38.17,0,*59
1485331621.44,65425,10.69,73518.5,-2.75,-37.33,-37.99,0,*50
1485331622.67,65426,10.69,73518.3,-2.73,-37.27,-37.99,0,*50
1485331623.91,65427,10.69,73518.5,-2.73,-37.15,-37.81,0,*59
1485331625.14,65428,10.69,73518.0,-2.73,-37.99,-38.85,0,*59
1485331626.38,65429,10.69,73522.0,-2.73,-37.51,-38.17,0,*57
1485331627.6,65430,10.69,73518.8,-2.73,-37.03,-37.69,0,*5E
1485331628.87,65431,10.69,73520.5,-2.69,-37.09,-37.81,0,*58
1485331630.09,65432,10.69,73518.3,-2.73,-37.15,-37.87,0,*5B
1485331631.35,65433,10.69,73516.5,-2.73,-36.91,-37.63,0,*5D
1485331632.6,65434,10.69,73518.8,-2.69,-37.03,-37.63,0,*5B
1485331633.86,65435,10.69,73512.5,-2.73,-37.09,-37.81,0,*57
1485331635.12,65436,10.69,73514.3,-2.73,-37.21,-37.93,0,*5D
1485331636.41,65437,10.69,73514.8,-2.67,-37.39,-37.99,0,*5A
1485331637.66,65438,10.69,73516.3,-2.67,-37.27,-38.11,0,*55
1485331638.92,65439,10.69,73518.3,-2.67,-37.45,-38.11,0,*50
1485331640.19,65440,10.69,73516.0,-2.69,-37.09,-37.81,0,*5E
1485331641.42,65441,10.69,73516.8,-2.69,-37.27,-37.93,0,*50
1485331642.69,65442,10.69,73512.3,-2.67,-37.03,-37.63,0,*54
1485331643.98,65443,10.69,73516.5,-2.67,-37.21,-37.93,0,*5A
1485331645.22,65444,10.69,73514.0,-2.65,-37.03,-37.63,0,*50
1485331646.47,65445,10.69,73516.5,-2.65,-37.51,-38.11,0,*5C
1485331647.72,65446,10.69,73512.5,-2.65,-37.39,-38.11,0,*51
1485331648.96,65447,10.69,73512.8,-2.63,-37.57,-38.17,0,*58
1485331650.21,65448,10.69,73512.0,-2.65,-37.51,-38.11,0,*51
1485331651.47,65449,10.69,73518.3,-2.65,-37.69,-38.49,0,*56
1485331652.7,65450,10.69,73516.5,-2.65,-38.17,-39.03,0,*57
1485331653.98,65451,10.69,73514.8,-2.67,-38.11,-38.91,0,*58
1485331655.21,65452,10.69,73514.0,-2.67,-37.75,-38.55,0,*5E
1485331656.47,65453,10.69,73514.8,-2.65,-37.69,-38.67,0,*51
1485331657.68,65454,10.75,73518.5,-2.65,-37.57,-38.35,0,*5C
1485331658.94,65455,10.69,73516.3,-2.67,-38.23,-39.09,0,*5D
1485331660.17,65456,10.69,73516.0,-2.67,-38.55,-39.09,0,*5F
1485331661.44,65457,10.75,73522.0,-2.67,-37.81,-38.61,0,*57
1485331662.67,65458,10.75,73518.3,-2.65,-38.29,-39.09,0,*58
1485331663.93,65459,10.75,73520.0,-2.67,-37.93,-38.73,0,*59
1485331665.19,65460,10.69,73516.5,-2.69,-38.11,-38.91,0,*54
1485331666.4,65461,10.69,73518.3,-2.69,-37.75,-38.55,0,*50
1485331667.63,65462,10.75,73518.0,-2.67,-37.57,-38.17,0,*5B
1485331668.89,65463,10.69,73512.8,-2.67,-37.45,-38.11,0,*5F
1485331670.18,65464,10.75,73516.8,-2.67,-37.09,-37.63,0,*5A
1485331671.44,65465,10.75,73518.5,-2.65,-36.91,-37.39,0,*56
1485331672.7,65466,10.75,73514.3,-2.65,-36.79,-37.39,0,*53
1485331673.91,65467,10.75,73518.8,-2.65,-37.03,-37.75,0,*56
1485331675.13,65468,10.75,73518.5,-2.63,-37.33,-38.05,0,*54
1485331676.37,65469,10.75,73516.5,-2.61,-37.27,-37.99,0,*58
1485331677.63,65470,10.69,73516.5,-2.61,-37.09,-37.69,0,*53
1485331678.86,65471,10.69,73510.8,-2.63,-37.15,-37.87,0,*5D
1485331680.09,65472,10.75,73516.3,-2.59,-37.33,-38.05,0,*56
1485331681.33,65473,10.75,73516.3,-2.61,-37.33,-37.99,0,*56
1485331682.55,65474,10.75,73518.3,-2.61,-38.11,-38.97,0,*5F
1485331683.79,65475,10.75,73514.8,-2.61,-37.15,-37.99,0,*54
1485331684.99,65476,10.69,73512.8,-2.61,-37.27,-38.05,0,*5C
1485331686.25,65477,10.75,73518.0,-2.61,-38.79,-39.59,0,*51
1485331687.48,65478,10.75,73516.5,-2.61,-38.61,-39.41,0,*5E
1485331688.74,65479,10.75,73518.0,-2.61,-37.99,-38.67,0,*52
1485331689.95,65480,10.75,73516.8,-2.61,-38.17,-39.09,0,*54
1485331691.18,65481,10.75,73516.0,-2.61,-38.11,-38.97,0,*55
1485331692.43,65482,10.75,73514.8,-2.63,-38.05,-38.91,0,*57
1485331693.7,65483,10.75,73516.0,-2.63,-37.93,-38.55,0,*5E
1485331694.99,65484,10.75,73518.3,-2.63,-37.21,-37.93,0,*55
1485331696.22,65485,10.75,73516.0,-2.61,-37.15,-37.99,0,*5B
1485331697.49,65486,10.75,73518.5,-2.61,-37.09,-37.63,0,*50
1485331698.72,65487,10.75,73518.5,-2.61,-36.97,-37.69,0,*5D
1485331699.93,65488,10.75,73516.0,-2.61,-37.15,-37.87,0,*59